Location: Hodgeman County Ambulance
(38.0844°N, 99.8949°W)
Time: 22:38:25
(UTC+00:00)

X-37B - Pass Details

Date: 28 September 2021
Orbit: 385 x 389 km, 45.0° (Epoch: 17 October)

Event Time Altitude Azimuth Distance (km) Brightness Sun altitude
Exits shadow 10:07:34 13° 44° (NE) 1,251 3.9 -28.8°
Drops below altitude 10° 10:08:03 10° 49° (NE) 1,413 4.3 -28.7°
Sets 10:10:20 0° 63° (ENE) 2,270 5.7 -28.3°
